Sultan Abdul Halim, Malaysia

8:57 PM +08 on November 21, 2017 (GMT +0800)
Sultan Abdul Halim

Weather History for WMKA - December, 2012

Change the Weather History Date:

Friday, December 7, 2012

  Actual Average Record
Temperature  
Mean Temperature 85 °F -  
Max Temperature 93 °F - - ()
Min Temperature 77 °F - - ()
Cooling Degree Days 20    
Growing Degree Days 35 (Base 50)    
Moisture  
Dew Point 78 °F    
Average Humidity 83    
Maximum Humidity 94    
Minimum Humidity 66    
Precipitation  
Precipitation 0.00 in - - ()
Sea Level Pressure  
Sea Level Pressure 29.81 in    
Wind  
Wind Speed 3 mph ()    
Max Wind Speed 8 mph    
Max Gust Speed -    
Visibility 6.2 miles    
Events      
T = Trace of Precipitation, MM = Missing Value Source: Averaged Metar Reports

Daily Weather History Graph

Daily Weather History Graph

Search for Another Location

Airport or City:

Trip Planner

Search our weather history database for the weather conditions in past years. The results will help you decide how hot, cold, wet, or windy it might be!

Date:

Astronomy

Dec. 07, 2012 Rise Set
Actual Time 7:16 AM +08 7:03 PM +08
Civil Twilight 6:54 AM +08 7:25 PM +08
Nautical Twilight 6:28 AM +08 7:51 PM +08
Astronomical Twilight 6:02 AM +08 8:17 PM +08
Moon 1:15 AM +08 (12/7) 1:37 PM +08 (12/7)
Length of Visible Light 12h 31m
Length of Day
11h 46m
Last Quarter, 44% of the Moon is Illuminated
Dec 7
Last Quarter
Dec 13
New
Dec 20
First Quarter
Dec 28
Full
Jan 5
Last Quarter

Hourly Weather History & Observations

Time (+08) Temp. Heat Index Dew Point Humidity Pressure Visibility Wind Dir Wind Speed Gust Speed Precip Events Conditions
12:00 AM 80.6 °F 87.1 °F 77.0 °F 89% 29.86 in 6.2 mi NNE 2.3 mph - N/A   Mostly Cloudy
1:00 AM 78.8 °F - 75.2 °F 89% 29.86 in 6.2 mi NW 3.5 mph - N/A   Mostly Cloudy
2:00 AM 78.8 °F - 75.2 °F 89% 29.83 in 6.2 mi North 2.3 mph - N/A   Mostly Cloudy
3:00 AM 77.0 °F - 75.2 °F 94% 29.83 in 6.2 mi North 2.3 mph - N/A   Mostly Cloudy
4:00 AM 77.0 °F - 75.2 °F 94% 29.80 in 6.2 mi North 1.2 mph - N/A   Mostly Cloudy
5:00 AM 77.0 °F - 75.2 °F 94% 29.80 in 6.2 mi North 2.3 mph - N/A   Mostly Cloudy
6:00 AM 77.0 °F - 75.2 °F 94% 29.80 in 6.2 mi North 2.3 mph - N/A   Mostly Cloudy
7:00 AM 77.0 °F - 75.2 °F 94% 29.83 in 6.2 mi NNE 1.2 mph - N/A   Mostly Cloudy
8:00 AM 77.0 °F - 75.2 °F 94% 29.83 in 6.2 mi NNW 2.3 mph - N/A   Mostly Cloudy
9:00 AM 80.6 °F 87.1 °F 77.0 °F 89% 29.86 in 5.6 mi NNE 3.5 mph - N/A   Mostly Cloudy
10:00 AM 84.2 °F 96.1 °F 78.8 °F 84% 29.86 in 6.2 mi NE 5.8 mph - N/A   Mostly Cloudy
11:00 AM 87.8 °F 102.5 °F 78.8 °F 75% 29.86 in 6.2 mi NE 6.9 mph - N/A   Mostly Cloudy
12:00 PM 89.6 °F 108.2 °F 80.6 °F 75% 29.86 in 6.2 mi NE 8.1 mph - N/A   Mostly Cloudy
1:00 PM 91.4 °F 111.0 °F 80.6 °F 71% 29.83 in 6.2 mi NE 6.9 mph - N/A   Mostly Cloudy
2:00 PM 93.2 °F 113.6 °F 80.6 °F 67% 29.80 in 6.2 mi ENE 6.9 mph - N/A   Mostly Cloudy
3:00 PM 93.2 °F 113.6 °F 80.6 °F 67% 29.74 in 6.2 mi ENE 5.8 mph - N/A   Mostly Cloudy
4:00 PM 91.4 °F 111.0 °F 80.6 °F 71% 29.71 in 6.2 mi NE 4.6 mph - N/A   Mostly Cloudy
5:00 PM 91.4 °F 107.2 °F 78.8 °F 66% 29.71 in 6.2 mi NE 4.6 mph - N/A   Mostly Cloudy
6:00 PM 89.6 °F 108.2 °F 80.6 °F 75% 29.74 in 6.2 mi North 4.6 mph - N/A   Mostly Cloudy
7:00 PM 86.0 °F 101.9 °F 80.6 °F 84% 29.77 in 6.2 mi North 5.8 mph - N/A   Mostly Cloudy
8:00 PM 84.2 °F 96.1 °F 78.8 °F 84% 29.80 in 6.2 mi North 8.1 mph - N/A   Mostly Cloudy
9:00 PM 82.4 °F 90.9 °F 77.0 °F 84% 29.83 in 6.2 mi North 6.9 mph - N/A   Mostly Cloudy
10:00 PM 80.6 °F 87.1 °F 77.0 °F 89% 29.83 in 6.2 mi NNE 3.5 mph - N/A   Mostly Cloudy
11:00 PM 80.6 °F 87.1 °F 77.0 °F 89% 29.86 in 6.2 mi North 1.2 mph - N/A   Mostly Cloudy